Theta_e
308 309 309 310 311 312 312 313 313 313 313 313 314 313 312 311 311 314 317 318 320 330 344 351 355 354 356 357 349 354 362 363 359 360 355 346 348 345 345 347 348 348 351 351 351
307 308 308 309 310 311 312 312 313 313 313 313 314 314 311 311 319 322 319 319 331 334 345 351 355 349 359 361 353 354 359 356 355 355 352 346 347 346 349 348 349 355 353 352 351
307 307 307 308 309 310 311 312 312 313 313 313 314 313 311 313 329 334 321 323 338 343 348 351 354 351 360 359 356 353 356 353 352 351 346 346 346 345 348 349 346 355 355 352 351
306 307 307 308 308 309 310 311 312 313 313 314 314 312 313 323 341 333 323 328 345 348 350 353 351 357 360 361 360 360 356 355 351 351 344 346 345 346 347 345 342 351 353 352 352
306 307 307 308 308 309 310 311 312 313 313 314 314 312 318 323 325 331 322 328 338 346 349 352 353 355 359 357 360 361 356 354 354 350 348 343 346 346 346 343 345 352 353 353 352
305 306 307 308 308 308 309 311 312 313 313 314 314 312 320 327 326 330 324 326 332 344 349 349 350 352 357 355 358 353 354 351 353 354 350 346 345 345 345 347 352 354 354 354 353
305 306 307 307 308 309 309 310 311 313 314 315 313 314 318 321 323 329 326 328 330 341 344 347 346 350 352 354 352 352 349 349 351 352 351 345 347 347 344 347 353 354 355 354 353
305 306 306 307 308 309 310 310 311 313 315 314 313 317 320 319 324 327 328 328 327 334 343 344 347 350 353 352 349 348 346 351 349 350 346 348 355 348 344 346 350 353 353 354 353
304 305 306 307 307 309 310 310 313 315 313 312 319 319 324 323 328 328 326 332 328 331 333 342 344 348 348 351 352 349 347 348 350 348 349 349 355 348 344 345 348 351 352 352 353
304 305 306 306 307 309 310 312 316 316 317 318 317 320 321 327 327 327 327 337 338 334 339 341 346 351 350 348 345 342 346 348 350 349 349 352 352 349 345 345 346 347 350 351 349
304 305 306 307 308 309 311 317 318 320 317 319 319 319 320 320 331 329 327 331 339 343 349 347 349 350 347 345 343 343 348 351 350 348 350 351 352 352 347 345 346 345 345 346 347
304 305 306 307 308 310 310 318 315 315 322 317 317 317 317 318 324 327 332 334 340 344 344 345 350 346 342 340 339 342 346 344 347 349 350 351 352 350 349 347 346 345 345 345 344
304 305 306 307 312 313 312 314 316 316 320 320 317 319 321 321 324 326 335 336 338 340 343 348 346 341 340 336 335 339 341 337 340 348 350 351 352 352 350 349 346 344 344 344 344
304 305 306 306 313 309 315 314 316 316 323 323 321 321 319 322 325 323 333 333 338 340 342 343 339 339 335 335 334 335 335 334 333 342 349 349 353 353 350 350 350 348 345 344 344
304 305 306 307 308 314 317 315 316 315 320 321 323 320 318 323 324 323 330 333 331 336 340 340 336 335 337 336 334 335 331 335 345 348 351 351 354 347 349 351 350 349 348 346 344
305 306 307 310 310 311 313 315 316 322 320 326 323 324 322 323 323 326 329 330 332 337 335 337 332 334 335 334 333 334 333 336 341 346 348 347 351 348 347 349 349 347 347 347 346
306 307 310 310 311 317 311 318 326 322 321 327 324 322 324 324 324 323 329 330 331 333 334 334 334 333 333 334 330 331 333 337 339 342 336 345 350 346 342 344 343 343 345 345 346
309 308 312 310 310 309 315 325 327 321 323 325 325 321 325 322 324 324 324 329 326 330 331 333 334 328 328 331 332 333 333 336 341 338 333 346 349 341 344 345 346 345 347 347 344
310 311 312 313 312 311 322 327 326 323 324 325 326 326 326 320 320 323 325 327 325 328 332 329 328 325 326 329 330 331 332 329 334 336 338 339 344 341 341 344 346 347 346 347 347
312 314 317 317 316 313 323 324 324 320 324 323 325 323 325 324 326 321 325 326 327 324 327 329 329 328 327 326 326 329 330 333 335 340 339 338 341 337 341 343 346 349 348 351 348
313 323 317 314 312 319 323 324 322 321 322 321 323 321 322 322 327 325 324 323 321 320 322 326 326 328 326 328 329 329 330 332 332 336 336 335 334 344 347 347 348 348 351 348 348
312 327 316 312 317 313 321 320 317 320 319 320 319 320 321 322 326 326 327 324 320 321 323 323 324 326 326 327 325 327 329 331 329 334 333 335 336 335 343 347 348 351 353 349 349
318 321 318 314 317 318 315 317 316 321 323 322 319 320 321 325 325 324 326 328 325 324 327 323 324 327 329 325 323 326 327 327 328 330 338 337 334 340 348 351 352 355 353 351 350
321 327 321 316 315 321 325 325 327 323 324 323 324 321 322 322 323 325 328 329 329 331 330 325 324 330 332 331 328 329 327 326 330 335 335 334 334 337 345 351 352 353 353 351 351
319 322 318 324 322 325 326 328 329 329 325 323 326 321 323 324 325 326 326 326 328 340 326 324 332 326 326 326 326 329 331 328 332 334 336 334 336 337 342 347 350 351 352 352 348
322 322 319 318 320 325 323 328 326 325 325 329 325 328 325 324 325 327 326 330 331 331 335 329 340 336 338 336 338 338 336 334 332 333 334 337 340 341 345 346 349 353 352 350 348
311 313 318 315 323 326 326 325 324 321 323 325 327 329 330 325 327 330 329 328 327 332 337 341 339 341 338 336 338 340 339 339 339 340 338 342 342 348 349 347 351 352 351 352 350
Wind_Speed
12 10 9 8 7 7 7 7 8 8 8 9 9 10 11 11 12 7 5 3 8 16 12 10 3 4 3 2 2 1 1 2 3 3 3 8 6 6 2 12 2 2 4 12 22
12 11 10 9 8 7 7 7 8 8 8 9 10 10 12 15 6 6 4 8 10 16 12 9 4 3 1 1 1 2 1 1 2 3 2 11 8 10 4 12 4 8 14 23 24
13 11 10 10 9 8 7 7 8 8 8 9 9 10 13 10 2 2 9 13 14 13 8 3 5 3 2 1 1 1 2 0 1 5 1 11 8 8 7 9 7 13 20 21 23
15 13 12 11 10 9 8 7 8 8 8 9 10 11 12 2 3 2 14 14 19 11 7 9 3 0 2 3 0 3 5 4 1 8 6 11 9 5 11 1 4 17 23 22 18
16 14 13 12 11 9 9 8 8 8 7 9 9 11 4 2 1 2 15 17 17 10 5 4 2 2 4 4 3 3 4 2 4 4 3 9 10 5 11 2 12 20 21 20 18
18 16 15 14 13 11 10 8 7 8 7 7 7 8 1 1 3 4 15 20 14 8 5 5 3 2 2 4 2 7 8 9 4 8 7 11 7 7 6 12 16 20 21 19 19
19 18 16 15 14 13 11 8 6 7 7 5 5 5 1 1 3 8 17 13 12 6 2 4 1 4 7 6 4 8 4 1 2 5 5 8 5 12 9 16 18 19 18 18 19
19 18 17 16 14 14 11 9 6 4 5 4 4 2 4 2 1 12 15 7 8 9 2 4 3 4 3 7 4 2 3 5 4 5 3 6 10 10 15 18 18 19 17 18 18
20 20 18 17 16 14 10 7 3 2 2 3 2 2 2 3 2 9 14 4 8 5 3 3 2 2 3 5 1 4 4 7 3 7 4 9 10 3 15 16 16 18 18 18 18
22 21 19 20 19 14 7 2 1 2 2 1 1 3 2 2 4 6 13 5 3 7 3 2 1 1 1 3 5 8 4 3 7 4 9 10 16 3 12 15 16 17 18 18 19
22 22 21 20 21 15 0 2 2 1 1 4 2 2 3 3 4 3 7 6 2 2 2 2 3 4 5 5 6 6 4 2 9 4 5 13 16 8 10 14 15 17 18 18 20
23 22 20 19 20 7 4 2 6 2 5 7 8 7 6 2 3 3 10 7 5 5 4 3 8 8 6 9 7 3 3 5 1 3 5 8 14 11 12 17 19 19 19 20 19
22 22 19 19 9 4 2 6 4 4 3 3 4 4 4 10 7 6 13 6 4 7 9 9 3 5 7 5 7 3 3 9 6 1 2 4 9 7 8 15 15 20 17 20 21
23 22 19 19 2 7 1 5 10 3 2 3 3 2 5 6 5 7 18 5 5 7 7 6 2 6 3 4 2 5 3 10 14 4 4 1 6 6 4 13 15 18 20 22 22
24 22 17 14 9 2 3 11 5 3 3 2 2 2 3 8 6 8 7 3 11 9 5 4 6 4 6 3 2 4 7 7 4 3 3 4 4 6 3 11 15 18 20 22 23
24 22 16 6 5 3 2 3 1 1 4 2 2 3 5 4 3 4 6 2 1 6 5 7 0 3 3 4 9 12 4 2 3 3 4 1 5 7 7 7 4 3 10 18 21
25 18 11 6 1 4 5 2 2 3 3 2 1 2 3 6 8 5 6 9 9 6 10 8 13 4 6 9 4 5 5 4 5 5 8 2 5 10 12 12 10 12 8 8 14
23 12 6 7 3 6 3 2 4 1 4 2 3 1 4 5 4 11 6 7 3 3 2 5 10 5 5 12 11 7 4 6 8 9 12 2 6 6 7 4 6 7 4 5 6
13 4 1 2 9 2 2 4 3 4 2 5 2 4 2 2 2 5 13 12 7 11 10 5 8 3 6 2 5 5 6 2 2 2 3 3 6 12 10 9 9 4 3 4 5
8 2 4 6 5 5 2 4 2 2 3 2 2 1 3 5 1 2 8 6 12 15 14 9 11 11 14 2 1 7 8 3 1 3 6 4 4 8 12 12 6 2 2 5 6
3 2 11 11 7 1 6 5 4 5 3 3 0 3 2 4 1 2 4 4 6 2 13 13 9 20 4 8 9 4 4 2 2 2 5 6 4 5 8 7 8 4 3 5 4
2 2 1 6 2 1 3 4 1 1 3 4 2 6 6 4 4 4 7 7 8 9 9 9 5 13 22 10 5 8 11 9 5 5 3 3 6 2 5 4 5 3 4 3 5
2 2 1 4 2 2 1 2 3 2 2 1 3 5 2 3 3 6 5 3 7 9 9 9 6 6 5 4 3 7 9 8 5 2 8 5 6 4 2 4 4 4 4 4 4
1 2 2 2 1 2 2 1 1 3 5 4 4 3 3 5 7 6 4 2 4 4 4 10 5 6 10 4 2 5 7 12 12 5 7 10 12 12 7 9 9 7 6 7 6
4 2 2 2 2 1 2 2 1 2 3 2 2 8 7 5 3 6 6 9 7 6 4 6 6 4 9 7 5 8 9 14 13 10 8 9 7 13 3 8 6 7 8 9 7
3 2 2 1 2 2 1 3 3 1 2 1 3 11 6 7 9 5 7 4 6 2 6 5 4 5 3 4 0 2 7 11 12 7 12 9 12 2 4 4 7 8 8 8 8
4 1 2 1 1 3 2 1 2 1 4 8 6 8 5 2 9 14 12 13 8 4 3 3 5 4 10 4 4 6 8 12 7 7 8 9 7 5 3 7 11 10 9 9 8
Wind_Direction
11 4 357 352 351 346 343 340 337 338 336 335 328 327 326 322 313 295 247 202 177 166 161 136 123 95 56 75 38 13 99 137 139 170 112 169 157 147 114 144 138 69 141 135 150
11 3 356 353 349 340 338 335 330 330 332 332 327 328 323 323 320 235 189 163 151 156 154 165 159 161 104 77 36 350 54 217 188 168 178 173 183 150 149 166 118 96 114 135 151
8 1 354 353 347 339 333 332 328 329 329 330 329 328 327 325 257 30 163 151 149 141 149 172 157 325 350 298 129 99 316 24 238 197 138 160 165 163 159 201 200 164 151 153 161
6 360 356 351 348 341 332 328 323 322 330 332 334 336 336 5 87 356 159 162 161 137 135 137 138 200 354 2 336 300 241 239 166 171 147 170 155 183 189 192 212 165 158 158 171
6 1 358 351 347 340 332 326 319 318 329 333 338 341 354 272 63 165 156 161 177 168 161 140 84 353 1 327 285 245 313 314 232 143 160 152 184 195 211 60 143 153 162 166 175
11 8 2 353 348 344 336 327 317 315 322 331 338 341 340 242 342 180 174 165 184 175 168 147 128 330 301 322 276 318 297 298 245 213 191 179 193 188 171 145 150 161 172 178 182
8 6 1 355 348 345 337 325 310 305 312 331 343 350 276 265 22 161 177 173 183 175 149 222 276 332 327 302 334 296 318 336 84 165 170 154 188 222 162 166 164 176 179 186 193
5 360 356 352 347 342 333 320 306 299 306 327 340 1 260 318 285 167 169 170 195 201 158 354 227 291 277 308 315 317 61 347 19 150 136 229 265 207 172 175 180 181 184 192 200
358 354 353 350 343 338 328 319 312 326 329 328 342 337 251 314 201 184 183 157 164 191 239 272 310 347 309 336 23 42 353 334 303 206 165 217 277 166 182 192 187 188 191 196 198
352 350 349 346 341 334 324 300 266 324 326 305 317 280 238 94 148 159 184 148 145 146 152 187 185 287 253 344 16 335 329 298 286 198 214 231 256 233 192 203 206 196 196 204 205
348 347 346 343 339 334 335 152 271 212 340 233 120 299 305 352 120 135 162 175 116 142 181 163 259 285 292 265 299 293 257 290 286 275 259 248 264 259 206 213 215 207 203 205 217
344 344 345 343 340 6 77 107 96 60 299 246 251 272 258 326 333 128 155 174 179 203 165 190 260 258 257 282 268 279 353 6 227 335 215 296 277 262 219 226 220 213 211 214 216
341 342 342 342 346 34 4 137 99 15 277 281 203 223 225 175 212 212 179 160 187 198 209 235 206 164 245 275 309 334 357 352 338 344 158 291 277 250 235 239 234 229 220 220 220
340 340 339 340 35 344 161 165 295 238 322 271 224 209 173 175 237 195 186 169 190 225 186 239 257 211 178 327 324 327 336 334 316 304 307 269 296 284 268 262 236 236 223 224 220
337 337 333 332 302 241 153 330 121 165 315 102 165 47 142 201 127 198 189 169 214 198 196 197 187 190 315 303 226 299 357 342 345 200 273 185 252 285 321 281 257 245 231 228 223
335 332 323 316 280 239 290 125 188 217 251 16 141 165 155 217 194 125 176 211 205 183 220 257 258 275 259 254 259 291 280 100 82 201 250 304 241 283 263 246 296 296 254 238 226
332 323 291 243 242 143 359 175 181 219 350 27 48 187 212 188 212 183 170 192 203 195 237 267 263 249 226 258 223 205 246 268 246 241 301 356 217 256 265 254 275 293 286 264 230
332 321 278 222 184 242 154 174 217 219 255 331 345 100 211 175 223 202 172 194 204 165 160 249 262 229 177 225 245 201 232 254 278 282 311 162 237 260 262 274 261 264 284 330 268
343 340 301 17 223 198 184 201 230 210 314 332 332 62 42 108 279 203 220 234 210 188 223 204 253 265 234 192 203 157 204 320 185 104 255 214 261 277 274 270 261 285 270 313 326
341 7 21 313 170 157 178 225 239 233 312 337 47 41 42 339 342 207 193 215 232 202 214 227 265 258 277 226 182 242 143 198 226 237 271 235 272 279 297 304 345 252 243 13 359
15 125 356 119 118 99 207 216 243 245 258 342 93 325 290 308 259 239 225 239 213 163 214 225 236 259 249 225 211 156 202 179 243 220 281 287 275 228 265 310 315 320 77 43 33
332 113 62 342 118 356 168 192 246 264 197 268 253 243 244 254 252 242 233 245 169 155 170 201 223 249 245 259 266 254 244 208 264 220 227 293 270 161 272 293 273 118 100 70 95
43 79 16 340 160 160 213 222 235 236 262 220 262 232 206 234 273 236 244 261 168 179 174 168 215 249 242 176 165 220 213 233 211 201 202 238 273 157 225 242 153 150 109 97 106
292 125 81 63 20 125 134 131 252 212 255 236 257 209 218 261 243 276 269 263 190 205 136 169 184 234 261 310 62 197 198 193 207 201 214 235 280 282 243 226 179 162 134 114 110
11 68 18 161 168 227 220 178 254 291 240 260 236 233 223 231 232 239 252 271 255 159 116 200 231 202 269 277 245 261 214 187 201 216 230 292 233 270 12 273 213 152 124 114 112
17 345 25 69 294 227 183 185 193 210 251 251 237 317 269 243 251 282 314 258 278 173 177 180 232 199 200 255 245 275 251 217 223 239 253 252 272 290 28 122 141 139 131 127 133
17 45 305 16 225 223 168 165 208 327 223 250 310 310 297 200 291 280 264 276 282 293 208 212 177 203 249 197 270 246 242 239 220 221 239 220 248 123 122 163 156 145 159 158 146